Location: Gombori
(14.9797°N, 2.9419°W)
Time: 22:52:54
(UTC+00:00)

ATLAS 3B R/B - Visible Passes

Search period start: 01 December 2021 00:00
Search period end: 11 December 2021 00:00
Orbit: 989 x 1206 km, 63.8° (Epoch: 25 November)

Date Brightness Start Highest point End Pass type
(mag) Time Alt. Az. Time Alt. Az. Time Alt. Az.
02 Dec 3.9 05:16:20 10° S 05:22:19 43° ESE 05:28:24 10° NE visible
03 Dec 5.0 04:30:40 10° SSE 04:35:16 21° ESE 04:39:53 10° ENE visible
04 Dec 2.5 05:31:50 10° SSW 05:38:14 77° WNW 05:44:46 10° NNE visible
05 Dec 3.3 04:44:52 10° S 04:51:04 53° ESE 04:57:22 10° NE visible
06 Dec 4.5 03:58:48 10° SSE 04:03:59 26° ESE 04:09:13 10° NE visible
06 Dec 3.2 05:48:44 10° WSW 05:54:20 31° WNW 06:00:03 10° N visible
07 Dec 5.3 03:14:47 10° SE 03:16:57 12° ESE 03:19:06 10° E visible
07 Dec 2.5 05:00:42 10° SW 05:07:00 62° WNW 05:13:28 10° NNE visible
08 Dec 2.8 04:13:29 10° SSW 04:19:49 67° ESE 04:26:16 10° NNE visible
09 Dec 4.0 03:27:06 10° S 03:32:43 33° ESE 03:38:23 10° NE visible
09 Dec 3.4 05:19:31 16° WSW 05:23:10 25° WNW 05:28:27 10° N visible
10 Dec 3.3 04:38:05 35° NNW 04:38:05 35° NNW 04:42:07 10° N visible
